Volver al catálogo

STARLINK-4526

ActivoComunicacionesVLEO
NORAD 53438·PAYLOAD·🇺🇸 United States

Lanzado Aug 10, 2022 desde Cape Canaveral Space Force Station

Loading…

Próximos Pases (próximas 24 horas)

TLE

ActualizadoSource: CelesTrak SupGP

Época: Sep 14, 2026, 20:58 UTC

1 53438C 22097BC  26257.87409722 -.00030370  00000+0 -89739-3 0  2574
2 53438  53.1595 319.7458 0001165  76.7307 167.7637 15.34401904    12

Sigue STARLINK-4526 en tiempo real con AllMySat

Download on the App Store